Vancleve, KY

9:02 PM EST on January 16, 2017 (GMT -0500)
Carroll

Weather History for KJKL - July, 2014

Change the Weather History Date:

Friday, July 25, 2014

  Actual Average Record
Temperature  
Mean Temperature 69 °F 75 °F  
Max Temperature 78 °F 85 °F 97 °F (1993)
Min Temperature 59 °F 66 °F 59 °F (2003)
Degree Days  
Heating Degree Days 0 0  
Month to date heating degree days 1 0  
Since 1 June heating degree days 1 12  
Since 1 July heating degree days 1 0  
Cooling Degree Days 4 10  
Month to date cooling degree days 225 256  
Year to date cooling degree days 703 615  
Since 1 June cooling degree days 512 479  
Growing Degree Days 18 (Base 50)    
Moisture  
Dew Point 59 °F    
Average Humidity 75    
Maximum Humidity 100    
Minimum Humidity 50    
Precipitation  
Precipitation 0.00 in 0.15 in 2.02 in (2004)
Month to date precipitation 4.40 3.75  
Year to date precipitation 28.38 28.96  
Snow  
Snow 0.00 in 0.00 in - ()
Month to date snowfall 0.0 0.0  
Since 1 June snowfall 0.0 0.0  
Since 1 July snowfall 0.0 0.0  
Snow Depth 0.00 in    
Sea Level Pressure  
Sea Level Pressure 30.07 in    
Wind  
Wind Speed 1 mph (SSE)    
Max Wind Speed 6 mph    
Max Gust Speed 8 mph    
Visibility 5 miles    
Events Fog    
T = Trace of Precipitation, MM = Missing Value Source: NWS Daily Summary

Daily Weather History Graph

Daily Weather History Graph

Search for Another Location

Airport or City:

Trip Planner

Search our weather history database for the weather conditions in past years. The results will help you decide how hot, cold, wet, or windy it might be!

Date:

Astronomy

Jul. 25, 2014 Rise Set
Actual Time 6:31 AM EDT 8:47 PM EDT
Civil Twilight 6:01 AM EDT 9:17 PM EDT
Nautical Twilight 5:25 AM EDT 9:53 PM EDT
Astronomical Twilight 4:45 AM EDT 10:33 PM EDT
Moon 5:29 AM EDT (7/25) 7:45 PM EDT (7/25)
Length of Visible Light 15h 15m
Length of Day
14h 16m
Waning Crescent, 1% of the Moon is Illuminated
Jul 25
Waning Crescent
Jul 26
New
Aug 3
First Quarter
Aug 10
Full
Aug 17
Last Quarter

Hourly Weather History & Observations

Time (EDT) Temp. Dew Point Humidity Pressure Visibility Wind Dir Wind Speed Gust Speed Precip Events Conditions
12:16 AM 63.0 °F 61.0 °F 93% 30.08 in 1.8 mi Calm Calm - N/A   Clear
12:21 AM 62.1 °F 60.1 °F 93% 30.08 in 1.0 mi Calm Calm - N/A   Mist
12:31 AM 62.1 °F 60.1 °F 93% 30.08 in 1.8 mi Calm Calm - N/A   Clear
12:36 AM 62.1 °F 60.1 °F 93% 30.08 in 3.0 mi Calm Calm - N/A   Clear
12:53 AM 63.0 °F 61.0 °F 93% 30.05 in 1.8 mi Calm Calm - N/A   Partly Cloudy
12:59 AM 63.0 °F 60.1 °F 90% 30.08 in 1.0 mi Calm Calm - N/A   Scattered Clouds
1:06 AM 62.1 °F 60.1 °F 93% 30.08 in 0.5 mi Calm Calm - N/A Fog Fog
1:14 AM 61.0 °F 60.1 °F 97% 30.08 in 0.2 mi Calm Calm - N/A Fog Fog
1:53 AM 61.0 °F 59.0 °F 93% 30.04 in 0.8 mi Calm Calm - N/A   Mist
1:57 AM 61.0 °F 59.0 °F 93% 30.06 in 1.2 mi Calm Calm - N/A   Scattered Clouds
2:06 AM 60.1 °F 59.0 °F 96% 30.06 in 0.8 mi Calm Calm - N/A   Mist
2:48 AM 60.8 °F 59.0 °F 94% 30.06 in 1.2 mi Calm Calm - N/A   Overcast
2:53 AM 60.1 °F 57.9 °F 93% 30.04 in 0.5 mi Calm Calm - N/A Fog Fog
3:19 AM 59.0 °F 57.9 °F 96% 30.05 in 0.2 mi Calm Calm - N/A Fog Fog
3:53 AM 60.1 °F 57.9 °F 93% 30.04 in 0.2 mi Calm Calm - N/A Fog Fog
4:53 AM 60.1 °F 57.9 °F 93% 30.04 in 0.2 mi Calm Calm - N/A Fog Fog
5:53 AM 59.0 °F 57.9 °F 96% 30.06 in 0.2 mi Calm Calm - N/A Fog Fog
6:53 AM 59.0 °F 57.9 °F 96% 30.08 in 0.2 mi Calm Calm - N/A Fog Fog
7:53 AM 60.1 °F 59.0 °F 96% 30.09 in 0.2 mi Calm Calm - N/A Fog Fog
8:53 AM 61.0 °F 60.1 °F 97% 30.10 in 0.2 mi Calm Calm - N/A Fog Fog
9:53 AM 61.0 °F 59.0 °F 93% 30.10 in 0.2 mi Calm Calm - N/A Fog Fog
10:26 AM 61.0 °F 60.1 °F 97% 30.14 in 1.8 mi Calm Calm - N/A   Overcast
10:33 AM 61.0 °F 60.1 °F 97% 30.13 in 2.5 mi Calm Calm - N/A   Overcast
10:46 AM 62.1 °F 60.1 °F 93% 30.13 in 4.0 mi Variable 3.5 mph - N/A   Overcast
10:53 AM 62.1 °F 60.1 °F 93% 30.10 in 5.0 mi Calm Calm - N/A   Overcast
11:06 AM 62.1 °F 60.1 °F 93% 30.12 in 6.0 mi SE 4.6 mph - N/A   Overcast
11:19 AM 64.0 °F 61.0 °F 90% 30.13 in 8.0 mi Variable 3.5 mph - N/A   Overcast
11:31 AM 64.0 °F 61.0 °F 90% 30.13 in 9.0 mi South 3.5 mph - N/A   Overcast
11:53 AM 69.1 °F 61.0 °F 75% 30.10 in 10.0 mi Calm Calm - N/A   Mostly Cloudy
12:13 PM 68.0 °F 60.1 °F 76% 30.12 in 10.0 mi Calm Calm - N/A   Overcast
12:53 PM 71.6 °F 60.8 °F 69% 30.11 in 10.0 mi NW 3.5 mph - N/A   Mostly Cloudy
1:24 PM 72.0 °F 57.9 °F 61% 30.11 in 10.0 mi Calm Calm - N/A   Mostly Cloudy
1:53 PM 73.0 °F 57.0 °F 57% 30.07 in 10.0 mi Calm Calm - N/A   Mostly Cloudy
2:53 PM 73.0 °F 57.0 °F 57% 30.05 in 10.0 mi Calm Calm - N/A   Overcast
3:53 PM 75.0 °F 57.0 °F 53% 30.04 in 10.0 mi Variable 3.5 mph - N/A   Partly Cloudy
4:53 PM 75.0 °F 60.1 °F 60% 30.04 in 10.0 mi Calm Calm - N/A   Clear
5:53 PM 77.0 °F 57.9 °F 52% 30.02 in 10.0 mi Calm Calm - N/A   Partly Cloudy
6:53 PM 75.0 °F 59.0 °F 57% 30.03 in 10.0 mi Calm Calm - N/A   Clear
7:53 PM 73.0 °F 59.0 °F 61% 30.01 in 10.0 mi Calm Calm - N/A   Clear
8:53 PM 70.0 °F 57.0 °F 63% 30.01 in 10.0 mi Calm Calm - N/A   Clear
9:53 PM 71.1 °F 55.9 °F 59% 30.03 in 10.0 mi Calm Calm - N/A   Clear
10:53 PM 66.9 °F 57.0 °F 70% 30.01 in 10.0 mi SSE 3.5 mph - N/A   Clear
11:53 PM 66.9 °F 57.0 °F 70% 30.02 in 10.0 mi Calm Calm - N/A   Partly Cloudy